Weather History for Macomb, IL

Change the Weather History Date:

Thursday, June 13, 2013

  Actual Average (KBRL) Record (KBRL)
Temperature  
Mean Temperature 77 °F 73 °F  
Max Temperature 86 °F 83 °F 98 °F (1987)
Min Temperature 68 °F 62 °F 44 °F (1903)
Degree Days  
Heating Degree Days 0 0  
Month to date heating degree days 9  
Since 1 June heating degree days 9  
Since 1 July heating degree days 5596  
Cooling Degree Days 12 8  
Month to date cooling degree days 87  
Year to date cooling degree days 190  
Since 1 June cooling degree days 87  
Growing Degree Days 27 (Base 50)    
Moisture  
Dew Point 57 °F    
Average Humidity 54    
Maximum Humidity 96    
Minimum Humidity 28    
Precipitation  
Precipitation 0.00 in 0.16 in 1.72 in (1999)
Month to date precipitation 1.97  
Year to date precipitation 16.23  
Sea Level Pressure  
Sea Level Pressure 29.95 in    
Wind  
Wind Speed 14 mph (North)    
Max Wind Speed 23 mph    
Max Gust Speed 34 mph    
Visibility 10 miles    
Events      
T = Trace of Precipitation, MM = Missing Value Source: NWS Daily Summary

Daily Weather History Graph

Daily Weather History Graph

Search for Another Location

Airport:

Trip Planner

Search our weather history database for the weather conditions in past years. The results will help you decide how hot, cold, wet, or windy it might be!

Date:

Astronomy

Jun. 13, 2013 Rise Set
Actual Time 5:31 AM CDT 8:34 PM CDT
Civil Twilight 4:58 AM CDT 9:07 PM CDT
Nautical Twilight 4:16 AM CDT 9:49 PM CDT
Astronomical Twilight 3:26 AM CDT 10:39 PM CDT
Moon 10:09 AM CDT (6/13) 11:39 PM CDT (6/13)
Length of Visible Light 16h 09m
Length of Day
15h 02m
Waxing Crescent, 22% of the Moon is Illuminated
Jun 13
Waxing Crescent
Jun 16
First Quarter
Jun 23
Full
Jun 29
Last Quarter
Jul 8
New

Hourly Weather History & Observations

Time (CDT) Temp. Heat Index Dew Point Humidity Pressure Visibility Wind Dir Wind Speed Gust Speed Precip Events Conditions
12:15 AM 76.5 °F - 63.1 °F 63% 29.76 in 10.0 mi West 15.0 mph 28.8 mph N/A   Clear
12:35 AM 75.6 °F - 60.8 °F 60% 29.76 in 10.0 mi WNW 17.3 mph 27.6 mph N/A   Clear
12:55 AM 75.2 °F - 60.8 °F 61% 29.76 in 10.0 mi WNW 16.1 mph 26.5 mph N/A   Clear
1:15 AM 74.3 °F - 61.0 °F 63% 29.76 in 10.0 mi WNW 19.6 mph 34.5 mph N/A   Clear
1:35 AM 73.4 °F - 61.7 °F 67% 29.77 in 10.0 mi WNW 20.7 mph 27.6 mph N/A   Mostly Cloudy
1:55 AM 73.0 °F - 61.7 °F 67% 29.77 in 10.0 mi West 18.4 mph 27.6 mph N/A   Overcast
2:15 AM 72.9 °F - 62.2 °F 69% 29.78 in 10.0 mi WNW 21.9 mph 29.9 mph N/A   Overcast
2:35 AM 71.8 °F - 62.6 °F 73% 29.79 in 10.0 mi WNW 23.0 mph 28.8 mph N/A   Overcast
2:55 AM 70.5 °F - 63.1 °F 77% 29.79 in 10.0 mi WNW 20.7 mph 28.8 mph N/A   Overcast
3:15 AM 69.8 °F - 63.5 °F 80% 29.80 in 10.0 mi West 16.1 mph 23.0 mph N/A   Overcast
3:35 AM 69.6 °F - 63.7 °F 81% 29.80 in 10.0 mi WNW 12.7 mph 19.6 mph N/A   Overcast
3:55 AM 69.8 °F - 63.9 °F 81% 29.80 in 10.0 mi WNW 13.8 mph - N/A   Overcast
4:15 AM 70.3 °F - 64.9 °F 83% 29.81 in 10.0 mi NW 15.0 mph 18.4 mph N/A   Overcast
4:35 AM 70.2 °F - 66.7 °F 89% 29.83 in 5.0 mi NNW 15.0 mph 25.3 mph N/A   Overcast
4:55 AM 68.9 °F - 67.6 °F 96% 29.84 in 5.0 mi North 13.8 mph 20.7 mph N/A   Overcast
5:15 AM 68.5 °F - 67.5 °F 96% 29.86 in 10.0 mi North 11.5 mph - N/A   Overcast
5:35 AM 68.4 °F - 67.3 °F 96% 29.87 in 10.0 mi North 16.1 mph 21.9 mph N/A   Overcast
5:55 AM 69.4 °F - 66.6 °F 91% 29.88 in 10.0 mi North 15.0 mph 24.2 mph N/A   Overcast
6:15 AM 70.0 °F - 65.8 °F 87% 29.89 in 10.0 mi North 9.2 mph - N/A   Overcast
6:35 AM 69.4 °F - 65.7 °F 88% 29.90 in 5.0 mi North 12.7 mph 19.6 mph N/A   Overcast
6:55 AM 68.7 °F - 65.3 °F 89% 29.92 in 5.0 mi North 15.0 mph - N/A   Overcast
7:15 AM 69.1 °F - 64.4 °F 85% 29.92 in 10.0 mi NNW 11.5 mph 20.7 mph N/A   Overcast
7:35 AM 68.9 °F - 63.5 °F 83% 29.94 in 10.0 mi North 17.3 mph 24.2 mph N/A   Overcast
7:55 AM 69.8 °F - 62.6 °F 78% 29.95 in 10.0 mi North 17.3 mph 20.7 mph N/A   Overcast
8:15 AM 71.8 °F - 62.4 °F 72% 29.96 in 10.0 mi North 16.1 mph - N/A   Overcast
8:35 AM 72.5 °F - 60.6 °F 66% 29.97 in 10.0 mi NNE 11.5 mph - N/A   Scattered Clouds
8:55 AM 73.0 °F - 57.9 °F 59% 29.98 in 10.0 mi North 13.8 mph - N/A   Clear
9:15 AM 74.1 °F - 55.6 °F 52% 29.99 in 10.0 mi North 11.5 mph 19.6 mph N/A   Clear
9:35 AM 75.2 °F - 55.8 °F 51% 30.00 in 10.0 mi North 10.4 mph 17.3 mph N/A   Clear
9:55 AM 75.9 °F - 54.1 °F 47% 30.01 in 10.0 mi North 12.7 mph 18.4 mph N/A   Clear
10:15 AM 76.6 °F - 52.3 °F 43% 30.01 in 10.0 mi NNE 16.1 mph 20.7 mph N/A   Clear
10:35 AM 77.5 °F - 52.3 °F 41% 30.01 in 10.0 mi NNE 12.7 mph 17.3 mph N/A   Clear
10:55 AM 78.8 °F - 52.7 °F 40% 30.02 in 10.0 mi NNE 12.7 mph - N/A   Clear
11:15 AM 79.9 °F - 52.5 °F 39% 30.02 in 10.0 mi NNE 10.4 mph 18.4 mph N/A   Clear
11:35 AM 80.2 °F - 51.6 °F 37% 30.02 in 10.0 mi NE 12.7 mph - N/A   Clear
11:55 AM 80.8 °F 80.3 °F 53.1 °F 38% 30.02 in 10.0 mi NNE 11.5 mph 17.3 mph N/A   Clear
12:15 PM 81.5 °F 80.9 °F 54.0 °F 39% 30.02 in 10.0 mi North 13.8 mph - N/A   Clear
12:35 PM 81.9 °F - 52.0 °F 35% 30.02 in 10.0 mi NNE 11.5 mph - N/A   Clear
12:55 PM 82.6 °F - 52.7 °F 35% 30.03 in 10.0 mi North 9.2 mph - N/A   Clear
1:15 PM 83.5 °F - 52.2 °F 34% 30.02 in 10.0 mi NNE 11.5 mph 16.1 mph N/A   Scattered Clouds
1:35 PM 83.8 °F - 51.1 °F 32% 30.02 in 10.0 mi North 9.2 mph 16.1 mph N/A   Scattered Clouds
1:55 PM 84.4 °F - 50.4 °F 31% 30.03 in 10.0 mi North 9.2 mph - N/A   Scattered Clouds
2:15 PM 85.1 °F - 50.7 °F 30% 30.03 in 10.0 mi NNE 13.8 mph 19.6 mph N/A   Scattered Clouds
2:35 PM 85.1 °F - 50.4 °F 30% 30.02 in 10.0 mi North 10.4 mph 17.3 mph N/A   Scattered Clouds
2:55 PM 85.1 °F - 50.2 °F 30% 30.02 in 10.0 mi North 12.7 mph - N/A   Scattered Clouds
3:15 PM 86.2 °F - 50.4 °F 29% 30.02 in 10.0 mi North 12.7 mph 17.3 mph N/A   Scattered Clouds
3:35 PM 85.5 °F - 49.5 °F 29% 30.01 in 10.0 mi NE 5.8 mph - N/A   Clear
3:55 PM 85.3 °F - 48.7 °F 28% 30.01 in 10.0 mi North 18.4 mph 21.9 mph N/A   Clear
4:15 PM 85.5 °F - 49.3 °F 28% 30.01 in 10.0 mi NNE 9.2 mph - N/A   Clear
4:35 PM 85.3 °F - 49.3 °F 29% 30.00 in 10.0 mi NE 9.2 mph - N/A   Clear
4:55 PM 85.5 °F - 49.5 °F 29% 30.00 in 10.0 mi NE 6.9 mph - N/A   Clear
5:15 PM 85.3 °F - 49.5 °F 29% 30.00 in 10.0 mi NNW 11.5 mph 17.3 mph N/A   Clear
5:35 PM 85.3 °F - 49.1 °F 28% 30.01 in 10.0 mi NNE 4.6 mph - N/A   Scattered Clouds
5:55 PM 85.3 °F - 50.4 °F 30% 30.01 in 10.0 mi North 9.2 mph - N/A   Mostly Cloudy
6:15 PM 84.4 °F - 50.5 °F 31% 30.02 in 10.0 mi North 3.5 mph - N/A   Mostly Cloudy
6:35 PM 85.5 °F - 50.5 °F 30% 30.03 in 10.0 mi NNW 9.2 mph - N/A   Mostly Cloudy
6:55 PM 82.6 °F - 50.0 °F 32% 30.03 in 10.0 mi NW 6.9 mph - N/A   Scattered Clouds
7:15 PM 83.8 °F - 50.9 °F 32% 30.03 in 10.0 mi North 6.9 mph - N/A   Scattered Clouds
7:35 PM 83.7 °F - 52.2 °F 34% 30.03 in 10.0 mi NNW 8.1 mph - N/A   Mostly Cloudy
7:55 PM 81.9 °F - 51.4 °F 35% 30.03 in 10.0 mi NW 6.9 mph - N/A   Mostly Cloudy
8:15 PM 79.9 °F - 53.1 °F 39% 30.03 in 10.0 mi NW 5.8 mph - N/A   Clear
8:35 PM 78.8 °F - 54.7 °F 43% 30.03 in 10.0 mi NNW 5.8 mph - N/A   Scattered Clouds
8:55 PM 76.8 °F - 55.9 °F 48% 30.02 in 10.0 mi NW 4.6 mph - N/A   Scattered Clouds
9:15 PM 75.7 °F - 57.2 °F 52% 30.03 in 10.0 mi NNW 4.6 mph - N/A   Mostly Cloudy
9:35 PM 75.2 °F - 57.2 °F 53% 30.03 in 10.0 mi North 3.5 mph - N/A   Scattered Clouds
9:55 PM 74.7 °F - 57.2 °F 54% 30.03 in 10.0 mi NE 3.5 mph - N/A   Clear
10:15 PM 73.4 °F - 58.8 °F 60% 30.02 in 10.0 mi ENE 3.5 mph - N/A   Clear
10:35 PM 71.6 °F - 59.0 °F 64% 30.01 in 10.0 mi East 5.8 mph - N/A   Clear
10:55 PM 70.5 °F - 58.5 °F 66% 30.00 in 10.0 mi ENE 8.1 mph - N/A   Clear
11:15 PM 70.3 °F - 58.1 °F 65% 30.00 in 10.0 mi ENE 4.6 mph - N/A   Clear
11:35 PM 70.3 °F - 58.1 °F 65% 30.01 in 10.0 mi ENE 5.8 mph - N/A   Clear
11:55 PM 70.5 °F - 58.1 °F 65% 30.01 in 10.0 mi NE 3.5 mph - N/A   Clear